Location: Unspecified
(58.7730°N, 5.8460°E)
Time: 16:52:51
(UTC+01:00)

Cosmos 2058 - Visible Passes

Search period start: 09 February 2016 00:00
Search period end: 19 February 2016 00:00
Orbit: 565 x 587 km, 82.5° (Epoch: 09 February)

Date Brightness Start Highest point End Pass type
(mag) Time Alt. Az. Time Alt. Az. Time Alt. Az.
09 Feb 5.5 17:51:29 10° W 17:54:26 18° NW 17:57:25 10° N visible
11 Feb 5.6 18:00:27 10° W 18:02:31 13° NW 18:04:35 10° NNW visible
12 Feb 5.7 18:05:15 10° WNW 18:06:34 11° NW 18:07:54 10° NNW visible
